Tracking 29892 objects as of 21-Nov-2024
HD Live streaming from Space Station
objects crossing your sky now

STARLINK-11346

Track STARLINK-11346 now!
10-day predictions
STARLINK-11346 is classified as:


NORAD ID: 61697
Int'l Code: 2024-195L
Perigee: 326.2 km
Apogee: 327.4 km
Inclination: 53.2 °
Period: 90.9 minutes
Semi major axis: 6697 km
RCS: Unknown
Launch date: October 30, 2024
Source: United States (US)
Launch site: AIR FORCE WESTERN TEST RANGE (AFWTR)
Your satellite tracking list
Your tracking list is empty




NASA's NSSDC Master Catalog

Two Line Element Set (TLE):
1 61697U 24195L   24325.94016240  .00202541  00000-0  87638-3 0  9991
2 61697  53.1624 202.5878 0000875 138.5338 221.5753 15.83824912  4614
Source of the keplerian elements: AFSPC